CAPE
693 744 739 622 769 1105 1064 1062 1196 1310 1656 2224 2655 2744 2933 2658 2819 2791 2984 2959 3048 3002 2958 2764 2690 2757 2882 2572 2618 2556 3050 2923 2736 2460 2123 2206 3000 4018 4281 4175 4083 4094 4073 3845 4065 4129 3754 2922 2562 2582 2554 2464 2772 1824 1749 1568 1465 1647 2067 1715 1200 911 735 456 807 31 431 421 1161 387 735 437 630 94 468 474 147 152 310 667 474 432 466 656 1013
628 790 900 686 641 771 793 1126 1008 1214 1568 2040 2272 2556 2841 2654 2781 2928 2857 3114 2988 3007 3254 3257 2997 2548 2666 2548 2171 2016 2792 2864 2854 2749 1984 1957 3793 4154 4676 4326 4392 4147 4201 3834 3492 4167 3143 3324 3179 2844 2715 2287 1943 2026 961 658 693 470 1876 1564 780 706 268 87 209 116 271 991 41 259 908 1017 1023 558 224 322 5 25 141 203 50 14 18 72 352
525 940 702 754 694 712 1045 1164 1015 1042 1294 1597 2255 2741 2977 2916 2943 3273 2850 2953 3106 3046 3366 3298 3058 2774 2484 2530 2410 2124 2263 2464 2230 2273 2418 2159 3552 4105 4260 4737 4150 4349 3832 4243 3531 2820 3443 2920 2360 2244 1069 2565 1289 1071 1853 911 670 172 1246 613 924 1080 746 555 404 161 13 239 565 554 885 1206 1294 1465 739 215 7 9 20 14 12 0 12 195 470
402 826 802 554 628 1081 1204 1273 1317 1303 1566 1551 2148 2727 3027 3088 3056 3312 3221 2884 2927 3176 3263 3228 3145 3042 3089 3168 2742 2381 2183 2189 2533 2528 2430 2138 2464 4082 4717 4532 4039 3964 3885 3771 3372 3459 2928 2569 2292 2279 1727 2142 2049 1995 1562 649 938 1615 762 1124 830 61 76 414 340 250 50 251 683 336 337 496 1240 1135 774 270 5 6 5 0 2 0 11 387 22
793 472 876 784 946 715 1437 1483 1390 1425 1721 1728 1965 2436 2782 3171 3158 3192 3630 3218 2919 3120 3219 3403 3280 3231 3348 3182 3183 2907 2252 2323 2283 2214 2322 2508 2022 3666 4517 4203 3794 3539 3075 3219 3068 3057 2593 2324 2385 2056 2434 1654 1570 1618 1000 162 1075 777 732 834 437 229 38 306 605 275 886 433 467 828 656 727 354 308 3 908 109 28 2 0 113 0 61 41 49
1008 1038 1098 938 664 1168 1654 1772 1612 1608 1759 1876 1887 2350 3019 3306 3282 3250 3648 3630 3220 3054 3231 3446 3364 3329 3518 3407 3290 3317 2978 2587 2726 2573 2216 2330 1876 1762 4457 3669 3287 3337 3040 3257 2777 2688 2432 2338 2206 2065 2046 2072 1500 1418 1055 1117 348 769 456 472 143 113 153 359 188 384 841 619 322 614 299 413 648 729 365 937 927 579 135 73 6 0 59 60 349
603 822 787 830 899 1138 1540 1870 1650 1592 1782 2010 2129 2454 3343 3720 3545 3470 3617 3704 3502 3336 3265 3365 3578 3646 3568 3352 3320 3318 3110 2821 2974 2608 2721 2939 2870 2831 4123 3291 3312 3231 2670 2841 2448 2587 2402 2362 2232 2036 2072 1875 1480 1232 808 333 187 232 145 140 385 535 136 670 393 590 503 476 590 4 0 141 83 187 378 509 774 908 1044 16 56 24 23 0 2
865 1173 1210 1328 1458 1063 1305 1790 1738 1287 1735 2065 2434 2916 3565 3983 3884 3574 3594 3675 3555 3597 3418 3498 3591 3665 3647 3610 3683 3681 2995 3265 3156 3432 3637 3390 3267 2701 2624 3293 3212 2912 2566 2852 2717 2578 2570 2397 2376 2034 1830 1662 1725 601 461 214 1679 655 150 791 646 366 780 399 425 718 520 1019 740 627 340 390 80 98 219 296 416 283 902 269 95 24 0 0 0
826 1213 1300 1399 1714 1339 1474 1747 1682 1514 1672 2146 2496 2954 3616 3977 4017 3867 3778 3853 3757 3884 3717 3682 3687 3772 3798 3876 4011 3744 3390 3543 3406 3355 3582 3249 3109 2960 3159 2964 3253 3022 2877 2625 2563 2425 2499 2400 2196 2118 1654 1473 876 905 250 758 512 726 657 308 615 672 841 696 361 715 386 452 497 488 405 843 558 248 18 238 386 99 241 86 311 8 17 5 0
866 941 1460 1568 1773 1561 1198 1600 1751 1754 1942 2234 2370 2993 3548 3913 4084 4032 4009 3968 3947 3977 3967 3844 3860 3902 3944 4064 3990 3724 3524 3398 3180 3539 3672 3634 3139 3126 3027 3420 3036 3086 2886 2829 2634 2389 2242 2284 2124 1835 1704 697 405 456 285 818 710 709 636 660 580 812 585 799 1053 1412 750 624 385 655 907 390 433 236 237 78 104 8 22 29 26 89 370 94 285
1112 1121 1426 1738 1772 1715 1577 1523 1770 1993 2030 2353 2432 2868 3181 3690 4149 4175 4173 4130 4102 4064 4070 4155 4020 4010 3969 4072 3944 3772 3685 3667 3634 3590 3553 3527 3273 3101 3434 3463 3245 3018 2382 2898 2490 2222 2261 2141 1692 1739 864 1202 212 988 709 466 437 582 669 822 836 803 726 889 438 638 822 719 518 470 634 444 1371 233 321 298 98 114 150 42 14 11 1 35 560
1111 1009 1226 1614 1581 1787 1617 1695 1964 2262 2215 2354 2279 2826 3072 3544 3946 4296 4382 4250 4231 4122 4070 4212 4089 4078 3967 4071 4006 3811 3709 3450 3585 3298 3247 3241 3059 3253 3450 3469 3250 3204 2875 2609 2239 1601 2433 2224 1817 1562 1245 838 311 673 615 530 131 546 881 1057 980 542 899 1338 740 784 626 924 199 324 426 202 403 0 37 1414 48 239 5 22 54 49 251 89 288
1097 1690 1644 1787 1762 1882 2142 2194 2148 2463 2456 2528 2181 2037 3012 3592 3955 4270 4528 4478 4184 4120 3993 4159 4228 4167 4097 3990 3940 3908 3990 3803 3774 3521 3253 3325 3295 3301 3615 3417 3256 3214 2919 2666 2231 2034 2341 2452 2350 1776 1078 1005 578 608 1428 364 1372 666 1015 981 733 831 826 688 577 326 188 414 483 44 48 67 298 317 32 4 56 1627 252 124 39 45 96 119 585
902 1246 1299 1676 1557 1402 1599 2178 2202 2399 2483 2456 2330 2372 2855 3435 3965 4272 4530 4566 4218 4074 4106 4237 4334 4375 4224 3985 3983 3915 3990 4038 4051 3703 3474 3532 3818 3338 3014 2987 3218 2924 2534 2612 2060 2011 2178 2112 2156 1441 1193 1090 1042 958 998 708 824 900 984 819 776 884 810 669 700 487 694 216 122 41 5 86 29 12 67 87 40 35 450 226 468 302 137 124 163
891 1095 1105 1514 2034 2111 2202 2524 2415 2542 2481 2150 2472 2701 2989 3312 4013 4264 4566 4677 4416 4121 4255 4261 4413 4485 4369 4065 4038 4018 3907 4027 4021 3758 3677 3563 3668 3404 3270 2876 3102 2867 2748 2565 2663 2381 2354 2137 1412 1461 1182 1007 1235 1135 1046 1196 991 1075 1130 890 663 865 577 808 574 355 307 249 236 336 102 42 102 420 16 10 7 11 473 329 744 332 213 169 191
519 1010 1536 1846 2238 2028 2162 2606 2626 2594 2623 2228 2416 2791 2996 3199 3968 4353 4550 4661 4530 4202 4238 4288 4393 4395 4397 4159 4090 3990 3820 3831 3989 3909 4128 3657 3618 3395 3449 3294 2983 3254 3090 2424 2581 2155 2226 1579 1357 1284 1200 1000 1115 1283 1166 976 1179 864 1398 1036 1106 844 816 648 696 1039 432 482 296 739 1207 461 147 94 123 170 550 488 344 446 476 479 224 188 234
562 893 1523 1987 1879 2186 2690 2629 2439 2418 2442 2339 2514 2701 3006 3231 3759 4384 4583 4646 4622 4219 4092 4275 4448 4403 4420 4294 4121 3989 3823 3719 3799 3955 3384 3648 3711 3441 3396 3116 3084 3329 2741 2414 1947 2009 2001 1500 1143 1082 1046 1025 884 1242 1131 1284 1211 1130 1037 1221 895 564 883 764 786 379 704 114 371 189 493 524 481 711 521 566 842 707 624 729 536 548 473 210 190
990 1368 1708 1962 2047 2582 2639 2431 2064 2263 2234 2521 2772 2707 2975 3237 3536 4170 4528 4743 4731 4434 4064 4123 4360 4484 4491 4388 4353 4178 3741 3409 3364 3638 3591 3647 3701 3460 3178 3154 2855 2836 2384 1962 1908 1787 1972 1680 1317 1149 1131 964 879 820 1122 1133 1274 1046 1096 997 861 915 974 1133 852 854 529 713 512 720 878 726 809 692 534 330 721 804 1024 968 1031 856 734 542 396
1065 1054 1964 2136 1949 2305 2995 2602 2127 2286 2529 2791 2960 2797 2762 3133 3356 3665 4266 4609 4767 4278 4098 4097 4318 4325 4416 4327 4444 4352 3926 3471 3362 3674 3725 3701 3141 3370 2878 3010 2927 2592 2562 2350 2121 1707 1794 1406 1535 1288 1176 1081 1072 978 1153 1196 1242 1094 991 1081 927 915 1314 1242 1123 823 838 838 762 555 897 816 986 716 751 396 1108 1100 1096 1150 1006 1022 1033 659 618
823 780 1353 1750 1875 1696 2113 2450 2374 2357 2836 2812 2738 2484 2226 2633 3380 3546 3985 4625 4802 4645 4482 4444 4323 4252 4344 4429 4477 4441 4332 3881 3672 3768 3810 3621 3460 3109 2914 3085 3015 2691 2635 2592 2206 1746 1614 1347 1445 1045 948 1005 1091 1018 1216 1212 1278 1295 917 770 748 791 915 988 993 911 658 831 823 707 893 780 694 685 604 506 697 802 878 1059 1032 1144 1195 1048 1014
1017 1214 1252 1505 1568 1696 2137 2417 2532 2449 2828 2647 2467 2325 1877 2218 2922 3413 4182 4379 4664 4726 4676 4499 4219 4258 4524 4696 4635 4613 4340 4120 4017 3756 3777 3723 3642 3280 3103 2895 3034 2740 2526 2466 2282 1948 1585 1369 1133 1097 896 811 910 1000 1122 1107 1074 1256 1154 982 957 908 880 810 978 897 735 811 888 732 871 892 908 986 958 820 665 989 904 895 1048 1057 964 1009 966
1087 1022 1039 1433 2346 2646 2354 2324 2970 2595 2662 2635 2466 2152 1845 1865 2610 3306 3776 4038 4209 4756 4804 4513 4339 4553 4417 4678 4530 4566 4426 4102 3988 3907 3703 3739 3804 3544 3476 3330 3006 2909 2591 2360 2336 2135 1731 1596 1267 1198 1044 979 1055 1073 1205 1067 1079 1195 1181 1004 1148 1097 953 876 812 914 1068 801 887 974 815 722 836 755 796 821 818 668 618 504 762 780 758 971 1247
810 778 751 963 2082 1983 1770 2110 3106 3004 3142 2817 2708 2247 2030 2284 2913 3005 3251 4051 4253 4428 4502 4665 4549 4542 4448 4620 4816 4726 4443 4205 3872 3846 3487 3408 3755 3822 3760 3581 3056 2900 2762 2461 2378 2052 1821 1637 1336 1196 1160 1134 1087 1174 1144 1086 1070 1195 1142 1000 1000 1014 830 842 840 762 762 799 861 868 753 777 816 923 1003 919 769 876 588 530 582 525 706 840 1017
836 600 666 1471 1847 1893 1661 1815 3209 3350 3410 3409 3286 2899 2587 2562 2580 2674 3107 3835 4051 4115 4236 4723 4680 4624 4448 4704 4933 4911 4292 3956 3593 3630 3422 3179 2999 3778 3909 3759 3188 2814 2898 2700 2442 1990 1820 1691 1373 1204 1204 1118 1164 1128 1059 1138 1222 1183 1185 1156 1059 1042 927 882 894 775 722 769 815 809 661 562 733 940 1034 973 901 959 1036 1092 912 927 1040 1038 1070
1271 1464 1690 1724 1472 1623 2172 3166 3824 3651 3623 3759 3626 3423 3117 3058 2787 2716 3074 3771 3859 3899 3741 4358 4372 4203 4322 4761 4855 4852 4625 4301 3971 3615 3511 3118 2989 3382 3803 3626 3356 2952 3035 2772 2457 2036 1938 1769 1458 1193 1160 1152 1232 1112 925 908 1193 1233 1227 1144 996 914 951 985 850 745 834 759 790 766 817 793 894 938 993 974 905 945 976 973 1060 1139 1233 1212 949
2420 2563 2145 1694 1598 2214 3694 4386 4297 3904 3865 4034 3917 3679 3379 3289 3054 2970 3044 3461 3645 3462 3817 4231 3964 4332 4615 4806 4739 4530 4330 4374 4101 3709 3467 3312 3101 3752 3881 3701 3590 3223 3242 2831 2517 2141 1926 1815 1492 1242 1126 1160 1290 1137 974 921 1032 1182 1259 1094 910 753 712 796 741 798 821 917 905 902 842 832 864 864 840 835 877 864 984 1050 954 1098 1179 1102 1027
2951 3139 2503 2416 2528 3144 4424 4950 4551 3925 3927 4203 4098 3855 3520 3480 3156 2964 3155 3216 3519 3240 3772 4298 4654 4212 4862 4848 4743 4568 4584 4486 4258 3960 3746 3677 3243 3146 3384 3368 3324 3033 3013 2677 2562 2304 1954 1834 1620 1295 1146 1171 1349 1276 1178 1096 1057 1148 1203 1065 866 750 667 729 696 747 736 789 848 831 899 997 981 903 796 829 1003 1006 829 731 1002 1126 1062 1068 1072
3960 3736 3656 3947 5412 5236 5103 5366 4775 4113 3998 4371 4197 3894 3689 3518 3114 2698 2852 2926 3118 3305 3763 4465 4800 4684 4972 5012 4912 4737 4569 4576 4414 4421 4226 3924 3717 3668 3790 3865 3661 3406 2980 2781 2577 2450 2100 1877 1757 1330 1201 1258 1270 1042 1053 1036 1020 1137 1100 893 751 608 631 735 690 740 647 550 668 738 653 870 946 1047 977 914 806 914 1073 1084 1254 1148 1198 1246 1151
3656 3781 3717 4244 5775 6014 5729 5633 5084 4287 4046 4351 4249 3960 3818 3778 3196 2736 2464 2924 3184 3361 3726 4464 4907 4991 5225 5310 5252 5073 4771 4592 4741 4859 4662 4457 4300 4272 4298 4223 3922 3550 3254 3061 2830 2601 2247 2029 1833 1194 1215 1486 1256 816 974 1104 705 949 789 718 594 506 517 545 625 627 682 675 602 642 485 524 972 1114 943 911 832 833 999 1116 1248 1300 1314 1123 888
3444 3878 4095 4688 5354 6101 5884 5866 5338 4571 4289 4284 4377 4250 3942 4074 3651 3328 2835 3146 3496 3614 3871 4548 5010 5232 5520 5555 5537 5437 5111 5099 5186 5209 5044 4799 4689 4720 4472 4320 4242 3848 3586 3389 2884 2852 2217 2047 1596 1329 1480 1669 956 813 737 756 587 828 425 366 668 546 332 377 557 668 646 636 595 601 508 755 956 1577 1386 789 579 698 625 831 1269 1446 1518 1273 1111
3534 3731 3764 4207 4809 5672 5673 5587 5509 4929 4698 4473 4696 4548 4309 3613 3972 3424 3376 3525 3982 4152 4105 4700 5226 5624 5813 5877 5944 5877 5581 5410 5513 5538 5438 5176 5018 4974 4677 4251 4332 4094 3749 3656 3608 2946 2404 2229 2026 1851 1615 1368 1254 1270 1211 1018 705 652 646 723 493 391 362 587 364 749 697 719 742 871 818 924 1170 1247 1727 1430 1202 910 699 663 442 433 750 1006 756
3627 3866 3273 4088 4413 5143 5332 5574 5429 5338 5065 4884 5030 4823 4552 3920 4259 3882 3463 4006 4437 4438 4262 4757 5422 5947 6112 6137 6104 6132 5985 5738 5716 5653 5608 5386 5241 5084 4773 4488 4391 4361 4013 3797 3555 3293 2522 2274 2086 1978 1802 1672 1634 1659 1607 1484 905 533 537 574 445 388 443 464 428 659 1118 1276 903 826 814 740 884 1198 1225 1513 1415 721 380 327 329 426 505 538 616
3103 3883 3833 4180 3920 4585 5191 5060 5119 5169 5110 5069 5206 4975 4724 4422 4733 4546 3900 4282 4853 4789 4650 4969 5711 6136 6292 6357 6306 6224 5934 5747 5608 5594 5452 5306 5163 4817 4564 4298 4123 4224 4172 3870 3984 3215 2593 2300 2101 2027 1873 1752 1739 1749 1837 1556 864 672 589 445 453 543 451 1037 1395 1255 873 906 1157 914 781 888 942 733 999 2028 1906 1336 662 533 421 517 623 713 747
3079 3990 4153 4145 4167 4681 5147 5508 5483 5381 4815 4848 4949 4958 4924 4846 5155 5074 4409 4569 5317 5154 5134 5268 5891 6219 6469 6396 6299 6026 5785 5605 5546 5425 5137 5014 4897 4666 4436 4291 4145 4150 4022 3739 3516 3283 2637 2324 2085 1922 1821 1745 1737 1745 1702 1488 706 620 757 550 524 498 935 1005 667 393 354 386 983 1253 1277 775 857 993 1110 1646 1908 1783 1776 1582 1370 1151 936 762 608
1051 4395 4179 4563 4809 5318 5790 5920 5699 5172 5119 5236 5304 5240 5358 5219 5477 5187 4753 5456 5640 5453 5529 5481 5830 6235 6470 6360 6137 5947 5792 5583 5423 5229 5011 4851 4815 4660 4366 4230 4062 3961 3873 3742 3296 2853 2522 2370 2183 1971 1854 1754 1710 1756 1584 1443 975 979 690 553 454 519 512 531 491 419 335 314 577 1992 1799 760 755 752 1008 1562 1784 1602 1454 1377 1280 1023 862 730 586
411 1719 5019 5254 5091 5374 5692 6035 5482 5337 4778 4943 5200 4823 4644 5263 5639 5233 5227 5836 5884 5777 5672 5692 5846 6276 6408 6223 6000 5840 5669 5371 5220 5097 5000 4885 4676 4384 4306 4094 3749 3535 3295 3689 2914 2636 2460 2324 2171 2174 2020 1882 1563 1398 1298 1314 1247 956 779 752 636 548 522 482 572 551 401 487 1467 1973 1555 718 471 1146 1145 1356 1831 1796 1494 1268 1158 932 768 639 454
232 344 2666 5433 5385 5539 5631 6353 5859 5140 4908 4785 4678 4772 5049 5476 5631 5217 5811 5864 6012 5990 5924 5931 6036 6345 6314 6051 5767 5435 5312 5221 5064 4914 4817 4634 4374 4241 4161 3915 3505 3129 2830 3212 2892 2563 2402 2321 2217 2086 1938 1786 1569 1238 1409 1416 1332 958 880 776 711 622 518 473 482 417 412 600 2179 1652 1262 1316 1378 1482 1144 1193 1352 1399 1313 1029 936 764 632 227 190
0 84 213 4577 5538 5387 5523 6269 5925 5337 5132 5505 5402 5276 5443 5806 5593 5367 5861 5807 6074 6119 6167 6291 6350 6352 6077 5722 5382 5094 5166 4734 4674 4586 4458 4253 4004 4004 4082 3754 3449 2904 2806 2599 2531 2464 2358 2237 2078 1894 1832 1738 1650 1543 1460 1291 1266 1214 1046 910 747 607 564 503 354 437 738 1850 1836 1930 1621 1545 1542 1248 1255 1126 1214 913 641 911 681 617 308 394 231
0 0 119 4095 5341 5263 5708 6038 5938 5726 5641 5856 5656 5610 5738 5963 5940 5599 5652 5603 6059 6323 6311 6165 6143 6071 5799 5423 5080 4793 4990 4566 4340 4294 3843 3839 3692 3667 3433 3181 2920 2908 2652 2287 2220 2243 2215 2042 1837 1693 1662 1629 1586 1475 1337 1261 1161 1093 948 796 656 562 438 353 367 499 1530 1974 1791 1652 1735 1580 1607 1282 1310 1236 929 545 613 732 736 478 272 171 133
0 0 108 4640 5547 5332 5966 6058 5839 5834 5840 6007 5849 5858 5740 5945 5932 5503 5545 5740 5847 6212 6168 6069 5715 5625 5281 4935 4759 4551 4313 4134 4178 3946 3817 3672 3374 3079 3061 2859 2636 2319 2161 2017 1914 1856 1853 1662 1304 1344 1507 1455 1349 1298 1226 1118 992 926 796 702 628 546 450 432 834 1036 2294 1557 1638 1464 1133 1207 1198 1194 1150 1105 819 421 293 456 309 132 57 232 78
76 1097 5318 6078 5884 5691 5847 5774 5634 5902 5975 5937 5817 5763 6017 5860 5902 5904 5741 5766 6049 6184 6070 5826 5421 4995 4948 4780 4687 4467 4051 3920 3816 3833 3470 3149 2904 2921 2702 2332 2183 1961 1762 1718 1644 1569 1338 1094 1008 1073 1241 1158 1060 958 878 810 777 746 678 650 655 606 561 929 1050 1169 1762 1652 1439 1492 1263 1148 1139 1085 827 503 369 497 371 46 60 96 105 0 0
592 4356 5231 5312 5028 6052 5887 5800 5948 6023 5843 5770 5921 6014 6158 6040 5962 5906 5752 5662 5959 5896 5738 5568 5092 4808 4654 4471 4215 4125 3827 3571 3624 3501 3187 3089 2878 2618 2236 2127 1952 1822 1718 1455 1336 1262 1231 1121 1039 1005 1042 994 743 590 573 497 500 532 570 612 588 535 941 1093 1219 1305 1731 1535 1872 1642 1566 1417 1084 1002 802 572 424 120 0 0 7 0 0 0 0
4757 5038 4690 4430 5345 5608 5465 5344 4853 5075 5297 5651 6010 6072 6064 5865 5766 5646 5606 5765 5600 5543 5381 5056 4670 4402 4080 4041 4105 3956 3550 3428 3432 3159 2973 2955 2706 2309 2042 1834 1718 1597 1593 1438 1121 1089 1004 864 744 638 640 991 1617 824 1170 569 544 485 458 453 406 506 700 1101 1143 1638 1814 1911 1932 1503 1239 1456 1074 936 608 403 0 0 0 0 0 0 0 0 0
3940 4299 4124 4398 5612 5460 4792 4688 4512 5188 5265 5517 5974 5782 5523 5346 5504 5436 5402 5208 5130 4943 4592 4159 3873 3961 3888 3681 3584 3440 3291 3316 3192 3076 2851 2606 2225 2043 1892 1691 1588 1519 1465 1350 1230 996 800 627 772 935 1591 1486 1428 752 924 665 483 463 402 350 288 39 417 1352 1483 1592 1520 1473 1761 1230 1111 805 630 567 413 48 240 175 0 0 0 0 0 0 0
3912 3784 4411 4836 4783 5009 4861 4928 5041 5123 5336 5460 5467 5109 4905 5302 5222 4907 4577 4717 4512 4238 3913 3700 3588 3543 3384 3295 3286 3171 3012 3068 3032 2856 2543 2365 2234 1971 1680 1461 1365 1412 1360 1307 1251 1033 1069 1093 1287 1467 1259 1262 1130 630 708 534 540 88 79 246 70 292 471 530 850 998 898 928 920 732 574 501 440 396 352 317 301 0 0 0 0 0 0 0 0
3862 4074 4470 4442 4486 4600 4668 4628 4902 5359 5348 5230 5224 5273 4883 4779 4612 4320 4314 4177 4063 3857 3629 3486 3280 3159 3125 2995 2865 2773 2767 2802 2785 2494 2259 2074 1788 1675 1444 1310 1378 1301 1388 1312 1364 1083 1095 1249 1534 1391 1325 1196 1002 776 924 755 396 138 380 504 575 698 705 587 630 822 835 795 697 468 542 527 484 430 335 223 0 0 0 0 0 0 0 0 0
4339 4626 4476 4451 4482 4290 4187 4400 4898 5176 4965 4558 4385 4306 4139 4276 4138 3912 3783 3794 3560 3506 3329 3234 3104 2836 2598 2510 2602 2530 2381 2243 2159 2217 2056 1826 1613 1619 1556 1394 1328 1331 1374 1461 1264 1220 1412 1330 1363 1295 1293 1100 1172 738 798 875 859 828 805 820 815 862 740 513 529 658 742 769 608 350 361 374 330 236 0 0 6 1 0 0 0 0 0 0 0
4105 4111 4215 4101 4344 4316 4548 4680 4498 4452 4298 4174 3964 3685 3768 3759 3375 3167 3340 3284 3190 3126 3054 2809 2601 2543 2464 2298 2091 2093 2038 1932 1913 1877 1667 1589 1453 1408 1568 1600 1501 1520 1560 1565 1422 1414 1530 1321 1229 1252 1398 1109 952 931 812 836 829 831 835 879 895 920 746 407 463 582 549 386 305 327 285 134 0 0 0 0 0 0 0 0 0 0 0 0 0
2749 2818 3300 4140 4010 3697 3688 3811 3717 3865 3703 3634 3594 3322 2913 3162 3266 3099 3013 2839 2714 2529 2506 2086 1900 1944 1964 1922 1990 1902 1716 1692 1340 1593 1542 1506 1346 1506 1660 1306 1195 1246 1286 1386 1490 1531 1364 1188 1301 1561 1506 1154 1059 1157 985 618 504 514 569 607 693 670 607 533 450 379 75 20 94 123 0 0 14 1 0 0 0 0 0 0 0 0 0 0 0
1961 2204 2290 2752 2668 3000 3076 3109 3055 2899 3005 3210 3167 3022 3032 2971 3000 2895 2731 2558 2485 2332 2148 2000 2009 1816 1699 1648 1671 1448 1546 1302 1259 1431 1456 1417 1172 1150 1198 1171 1130 1066 1090 1079 1096 1530 1376 939 1452 1620 1320 1260 1206 1397 988 846 625 192 0 4 72 74 26 159 28 0 1 218 280 251 152 84 128 129 114 136 77 52 40 35 58 50 46 37 17
1701 1783 1692 1924 2959 3254 3296 3256 3281 3187 3110 2974 3074 3095 3202 2907 2803 2776 2682 2671 2561 2322 1988 1872 1678 1554 1429 1258 1107 1291 1623 1871 1289 1302 1341 1318 1150 1102 1138 1073 1027 1004 950 948 906 901 799 996 1747 860 799 978 1018 788 678 632 527 381 409 25 0 0 0 0 0 0 13 83 534 368 383 126 100 27 201 155 194 169 111 22 50 61 12 11 3
Wind_Speed
6 7 6 7 7 5 2 5 3 6 5 9 9 9 8 6 7 7 5 8 9 8 8 8 8 8 7 9 8 7 5 4 5 4 4 3 3 7 9 8 10 11 12 12 12 13 14 16 19 19 20 21 20 17 18 19 20 20 21 21 19 17 17 15 17 nan 15 12 11 15 15 16 16 nan 13 13 14 19 17 16 15 15 12 13 14
7 6 7 8 7 9 6 6 5 7 7 10 10 10 9 8 8 9 7 7 10 10 9 8 7 7 8 7 7 6 6 4 3 3 2 5 9 10 9 11 11 13 13 14 13 14 17 18 21 21 21 21 20 18 20 20 19 18 20 20 19 18 19 nan 17 16 15 15 nan 14 14 17 13 14 15 14 nan nan 21 19 nan nan nan nan 11
5 8 8 7 11 11 9 8 8 9 10 11 11 11 11 9 8 10 9 8 10 11 10 9 7 7 8 6 5 5 5 4 4 3 5 5 11 13 13 13 14 14 15 17 17 18 17 20 20 21 19 20 20 18 17 20 20 17 21 19 18 17 19 19 21 17 nan 14 13 14 15 19 13 14 14 12 nan nan nan nan nan nan nan 12 12
5 7 9 8 9 8 9 9 9 10 11 11 13 13 12 10 10 11 12 10 9 11 11 9 8 7 7 6 6 4 6 6 6 7 6 8 11 16 15 15 17 17 17 18 18 22 21 20 19 21 17 18 18 15 18 20 18 20 18 19 20 nan nan 20 19 21 nan 17 15 16 14 16 16 15 14 15 nan nan nan nan nan nan nan 14 nan
5 6 7 7 7 8 8 8 9 10 11 12 14 14 12 14 13 13 13 12 10 12 12 10 9 7 7 6 5 6 7 7 9 8 8 10 12 17 18 16 15 14 16 12 19 20 19 18 17 20 19 18 18 17 19 18 19 22 19 21 19 17 nan 16 20 21 21 19 17 16 17 19 16 17 nan 15 15 nan nan nan 25 nan nan nan nan
7 5 6 8 7 7 7 9 8 7 8 9 11 14 14 14 14 14 14 14 13 12 13 11 10 9 9 8 8 8 9 10 9 10 12 13 13 16 21 21 18 16 19 15 18 18 18 17 16 19 19 18 18 17 17 18 18 17 23 21 21 21 18 16 19 19 20 20 20 17 20 16 19 16 18 18 16 18 22 nan nan nan nan nan 20
10 6 4 8 8 8 9 10 10 9 8 9 9 11 13 13 14 15 14 14 14 14 14 12 11 10 10 10 9 11 11 11 11 11 13 15 16 16 21 20 19 19 17 17 16 18 17 16 16 19 19 21 19 19 17 18 22 19 24 21 21 23 22 18 18 21 21 18 19 nan nan 20 nan 19 20 18 20 17 20 nan nan nan nan nan nan
12 12 7 6 9 10 11 12 12 12 11 10 10 10 13 13 14 15 13 14 15 15 15 13 12 12 12 11 11 12 13 13 14 13 15 16 16 16 18 20 19 16 16 18 15 18 17 17 19 18 19 20 21 21 19 18 22 23 22 24 22 21 21 20 21 18 21 21 20 18 20 21 nan nan 23 21 22 20 19 18 nan nan nan nan nan
13 16 13 9 9 9 11 13 14 13 13 12 11 12 13 13 14 14 14 14 14 16 16 15 13 13 13 12 13 13 14 15 15 15 16 16 16 16 17 20 18 16 14 18 17 19 20 20 20 19 19 20 21 21 21 23 25 25 25 25 24 24 20 23 22 21 23 24 20 22 19 18 19 21 nan 22 22 nan 21 nan 19 nan nan nan nan
15 17 20 17 14 11 9 11 15 14 13 14 14 15 15 14 15 16 14 14 15 16 17 16 15 14 14 14 14 15 15 15 15 17 16 17 15 17 18 20 18 17 14 18 18 19 21 21 20 20 19 21 21 21 21 26 25 26 26 25 25 27 25 26 24 26 26 23 25 24 23 20 20 20 21 nan 23 nan nan nan nan nan 24 nan 22
17 19 23 22 22 21 14 10 13 15 14 16 17 16 16 15 15 16 15 14 16 16 18 18 16 15 15 15 15 15 16 16 16 17 18 18 17 16 19 19 18 17 16 16 20 20 21 21 22 22 21 22 21 20 24 26 26 25 27 26 27 26 29 27 27 28 27 27 26 27 24 23 23 24 22 23 nan 24 24 nan nan nan nan nan 22
17 19 22 25 25 23 21 15 15 17 15 17 18 18 17 17 17 17 16 16 16 17 18 18 17 16 16 17 16 16 17 16 17 16 18 18 18 17 19 19 16 17 16 18 19 21 22 22 22 22 26 26 25 20 24 25 28 29 29 30 29 28 27 27 27 26 29 28 26 28 27 25 27 nan nan 26 nan 26 nan nan nan nan 22 nan 25
16 20 20 23 23 21 19 17 17 18 18 18 19 20 19 20 20 19 18 17 16 17 18 18 17 17 17 17 17 17 17 17 17 17 17 18 19 18 19 18 18 18 17 20 20 22 25 23 22 25 27 28 26 24 22 26 29 30 34 33 31 32 28 29 28 25 25 25 25 nan nan nan 31 28 nan nan nan 28 28 26 nan nan nan 23 23
16 17 16 18 19 18 14 12 15 16 19 19 20 20 19 20 22 21 20 18 17 17 19 19 18 18 18 18 18 17 17 17 17 18 18 17 19 18 18 18 20 19 20 18 22 24 27 25 23 27 28 27 28 26 24 28 29 33 36 35 34 33 33 32 31 27 25 26 26 nan nan nan nan nan nan nan nan nan 26 26 26 24 24 22 24
18 15 14 14 17 20 15 11 12 15 18 19 19 19 20 20 21 22 21 19 18 18 19 20 19 19 18 18 18 18 18 18 18 18 18 18 18 18 18 19 20 21 22 21 20 24 28 25 27 27 29 28 28 28 29 30 32 31 36 36 35 36 33 33 34 29 29 30 30 28 27 nan 28 27 nan nan nan nan 29 27 27 25 23 23 23
17 14 13 13 16 18 15 11 12 13 17 17 18 17 18 19 20 22 21 21 20 19 19 20 20 19 19 18 18 19 19 19 18 19 18 19 19 19 19 19 21 22 22 24 21 24 27 28 28 28 30 30 30 30 30 32 32 33 35 36 35 38 35 35 32 29 28 31 30 26 24 21 23 nan 28 28 30 31 30 29 27 27 26 23 24
13 12 10 10 11 11 13 13 13 15 17 18 17 18 18 19 19 20 20 19 19 19 19 21 20 19 19 19 19 19 21 21 20 21 19 19 19 20 20 19 21 22 22 24 25 25 28 30 31 31 30 29 30 30 31 31 33 34 35 35 35 35 36 35 32 27 26 28 28 23 23 23 22 25 27 28 29 29 29 29 29 27 27 26 24
13 12 11 12 11 10 12 13 16 17 19 19 19 18 17 18 19 19 19 18 17 17 18 20 20 20 19 20 20 20 21 22 21 21 19 19 19 20 20 20 21 21 23 24 26 28 28 31 32 33 31 31 31 32 32 32 34 35 36 37 35 34 36 35 33 29 27 26 25 23 27 25 26 26 26 25 27 28 29 29 28 27 27 26 25
16 15 17 18 13 8 9 11 14 14 16 18 19 20 18 17 18 19 20 19 18 17 17 17 19 19 19 19 20 21 22 22 21 20 20 18 19 20 20 21 21 21 24 25 27 28 29 30 31 33 33 33 33 33 33 33 35 36 37 38 36 34 33 36 34 33 31 30 29 27 26 25 26 26 25 25 27 28 29 29 28 27 27 27 25
23 21 20 20 16 9 8 8 10 13 15 17 20 21 25 22 20 20 19 18 17 17 17 18 19 18 18 19 19 20 20 20 19 19 19 18 18 19 21 22 23 23 24 26 27 28 30 32 32 34 34 35 35 35 36 36 35 37 38 37 36 34 33 35 37 36 35 34 33 31 30 28 27 28 29 28 26 27 28 28 28 28 28 29 29
28 28 24 22 17 13 8 4 5 8 11 15 17 22 24 24 24 24 22 22 21 19 18 17 18 18 19 19 19 18 18 18 17 16 17 18 18 19 20 20 23 24 25 26 27 28 30 31 33 33 34 35 37 37 39 38 36 36 37 36 33 33 33 35 39 40 38 37 36 35 33 30 29 30 32 30 27 28 29 28 28 29 29 31 30
29 32 29 24 23 21 16 10 5 4 11 17 19 19 22 25 26 26 24 22 22 19 17 18 17 17 18 18 18 17 16 15 15 15 16 18 20 19 20 21 24 24 25 27 29 29 30 32 33 33 34 36 37 38 40 39 37 36 36 33 29 30 33 36 39 41 42 39 38 37 35 31 29 29 30 30 28 28 30 30 30 30 30 29 29
31 33 31 25 22 22 20 13 7 5 7 14 18 19 20 24 27 26 26 24 22 20 18 17 17 16 17 17 17 16 16 16 17 16 18 19 21 21 22 23 24 24 24 26 29 31 33 34 34 35 35 37 38 38 37 38 38 37 35 31 26 27 31 35 39 42 43 42 39 37 35 32 30 30 30 30 29 30 32 32 31 31 29 28 27
34 32 27 23 21 21 22 18 13 7 7 13 15 16 18 21 25 27 28 26 22 19 18 18 17 16 17 17 17 16 18 19 19 18 20 21 21 22 22 23 23 23 25 26 30 32 33 35 36 37 38 38 39 38 37 36 38 37 34 30 28 28 31 36 42 44 44 43 41 38 35 32 30 29 30 31 31 31 33 34 33 32 30 29 28
36 29 26 24 22 20 19 19 17 11 9 11 13 17 18 19 23 26 28 27 22 18 17 18 19 19 18 17 17 18 19 20 21 20 22 22 21 21 20 22 23 23 25 28 30 33 34 37 39 41 41 41 42 41 38 37 37 35 32 31 32 36 38 40 43 45 45 44 41 38 36 34 31 30 30 31 32 32 34 34 33 31 30 30 30
32 27 26 25 23 20 21 21 18 13 9 9 14 18 18 18 20 23 26 25 23 19 17 18 19 18 17 19 18 19 21 22 21 19 20 19 19 19 20 21 24 26 27 29 32 34 36 39 41 43 45 45 45 45 41 38 37 36 33 32 34 36 38 38 39 41 44 44 40 38 36 33 31 32 33 33 33 33 35 34 32 31 30 30 30
34 27 25 28 27 23 23 22 19 14 9 10 14 18 18 17 18 21 22 24 23 19 17 18 20 19 18 19 19 19 19 20 19 16 15 17 19 20 21 22 24 27 29 30 32 35 36 39 42 45 47 47 48 48 44 39 37 37 36 34 34 35 35 36 36 38 42 43 39 37 36 35 34 34 35 35 35 35 35 33 33 33 32 31 31
35 29 29 29 29 30 28 25 21 16 12 12 14 17 17 17 18 19 22 24 24 22 18 18 19 18 17 19 19 19 18 17 16 16 16 16 18 19 19 20 23 25 29 32 34 36 37 39 43 46 47 48 48 47 45 41 38 39 38 36 35 35 35 35 35 37 41 42 40 38 37 36 36 36 36 36 37 35 34 33 34 34 33 32 32
34 28 29 31 34 34 33 30 25 20 16 14 15 16 16 16 17 17 20 23 25 24 20 18 19 17 17 19 18 17 15 15 16 16 16 16 18 19 21 23 24 26 28 31 34 36 38 41 45 47 48 49 48 47 44 42 40 39 39 37 37 36 36 35 35 37 40 40 38 37 36 37 38 39 38 38 38 37 35 34 35 36 35 35 34
37 32 31 33 36 39 37 35 31 25 20 17 17 17 16 16 17 19 19 22 25 24 20 18 19 18 18 19 18 16 14 14 15 16 17 18 19 21 23 26 28 30 31 33 36 39 42 45 47 49 50 49 47 45 45 49 43 38 38 37 37 38 37 36 37 38 40 40 38 37 36 31 30 35 39 38 37 37 36 35 35 36 37 36 36
30 31 32 34 38 40 39 36 34 30 24 18 18 18 18 16 18 19 20 23 26 24 20 18 18 18 19 19 17 16 15 16 17 17 18 20 21 23 25 28 30 34 35 36 38 43 46 48 49 50 52 50 48 45 51 53 48 42 37 36 38 38 37 37 37 39 40 40 39 40 37 31 31 32 36 37 37 39 39 38 37 37 38 40 39
30 30 33 36 36 39 38 36 34 33 27 22 20 20 19 17 19 19 21 24 26 24 22 20 20 19 19 18 18 18 18 19 19 19 21 22 24 26 28 30 32 36 38 38 40 43 47 50 51 52 52 50 47 47 51 49 45 42 38 37 37 37 36 36 37 39 41 42 42 37 36 34 36 38 40 38 41 44 42 38 37 37 38 41 42
35 33 30 34 35 37 37 36 35 32 29 24 23 21 18 18 20 20 21 24 26 25 22 22 21 19 19 19 20 20 20 20 22 23 25 27 29 30 31 33 34 35 38 40 42 45 47 51 54 56 54 50 44 48 50 48 45 43 41 39 37 36 34 36 38 42 43 41 40 36 32 33 37 35 37 41 39 38 37 37 38 39 38 39 40
38 35 30 30 34 36 37 36 35 33 28 27 27 22 19 19 22 22 21 24 26 24 22 22 22 21 22 22 22 22 21 23 25 27 29 29 31 32 33 34 35 37 39 41 43 46 47 50 53 56 55 51 45 46 49 49 46 44 42 39 36 35 34 36 39 42 42 39 37 36 32 37 42 42 41 37 36 35 38 40 41 41 41 40 40
41 40 36 32 29 32 35 36 36 34 33 33 31 27 24 22 23 22 22 26 26 22 21 22 23 23 24 25 24 24 24 26 28 29 30 30 32 34 35 37 38 39 41 42 45 47 48 49 52 56 56 53 46 48 47 49 48 44 43 38 33 33 34 36 39 41 38 36 33 35 41 42 39 42 42 40 38 39 41 41 41 41 40 40 39
39 43 41 39 33 29 30 33 37 41 37 34 34 30 25 23 24 24 24 28 26 22 22 23 24 25 26 27 28 28 29 30 31 31 31 33 34 36 37 39 40 41 42 45 47 48 50 52 53 55 55 52 47 51 48 49 49 46 45 37 33 32 34 36 37 38 35 31 33 39 41 45 39 39 39 39 40 41 43 44 44 43 42 41 39
44 41 46 47 44 35 32 36 40 40 39 38 39 36 28 26 26 26 27 30 28 24 24 25 25 27 28 30 31 31 33 35 35 35 35 35 35 37 39 41 41 42 44 48 51 51 52 55 55 54 54 51 48 51 51 51 51 50 45 38 34 32 33 36 35 33 33 30 35 40 43 45 45 45 42 39 40 41 42 44 45 44 43 42 43
nan nan 45 51 51 45 41 41 42 40 41 43 44 41 33 28 28 29 30 30 29 26 26 27 27 29 31 32 33 35 37 39 39 39 39 38 38 39 41 43 43 45 46 50 53 53 54 54 56 55 54 51 47 47 50 52 52 50 46 40 36 34 34 35 33 31 31 34 39 43 45 46 48 46 48 49 47 45 44 44 44 42 42 43 46
nan nan 37 48 53 51 46 43 43 42 43 44 46 45 38 30 29 32 31 30 30 30 30 30 30 32 34 35 38 39 41 42 42 42 42 43 42 43 44 46 45 46 47 51 54 54 53 55 56 55 54 53 48 47 49 51 51 48 43 37 36 35 34 33 33 32 35 39 40 41 45 46 48 50 56 51 45 45 46 45 44 44 43 45 49
nan nan 26 46 56 54 47 43 42 40 41 45 47 47 40 32 31 34 32 31 32 33 34 34 34 35 37 39 42 43 44 44 45 47 46 46 47 46 48 48 47 48 50 53 54 55 56 56 56 55 52 49 48 47 48 49 47 45 44 38 37 36 33 32 33 35 39 38 40 42 45 48 57 58 58 54 50 49 46 46 44 44 nan 49 nan
nan 35 49 55 58 51 42 40 41 41 44 47 49 48 42 34 34 34 33 35 37 37 37 38 40 41 42 44 45 47 48 47 48 49 50 49 49 49 51 51 51 50 52 54 55 55 55 54 54 54 51 48 45 47 47 47 44 43 42 40 38 36 34 33 34 35 38 39 42 42 44 46 54 55 56 55 54 52 49 nan nan nan 50 nan nan
34 43 44 53 51 44 39 42 44 44 47 49 50 48 42 37 34 35 38 40 40 40 41 44 44 46 47 48 49 50 50 49 51 53 52 51 51 52 52 53 51 51 53 53 54 52 53 52 49 52 49 47 46 45 45 43 43 43 42 42 38 35 34 34 34 34 37 39 41 41 40 47 53 54 56 56 56 53 nan nan nan nan nan nan nan
49 47 52 50 45 36 36 40 41 43 46 49 49 46 41 38 36 40 42 44 44 43 46 47 48 49 50 51 53 54 52 52 56 57 57 56 55 55 54 55 53 51 52 53 54 53 52 51 50 49 46 46 47 44 45 44 43 45 45 43 38 34 38 35 35 37 38 39 39 41 44 49 53 55 56 56 nan nan nan nan nan nan nan nan nan
49 47 43 46 42 38 37 39 42 47 47 47 47 44 42 40 42 45 47 47 47 48 49 51 51 52 53 54 55 55 55 57 60 61 64 65 60 56 54 54 52 51 51 51 53 53 51 51 51 51 49 48 47 44 42 46 47 48 45 42 38 nan 35 37 37 37 39 40 41 44 47 54 55 55 56 nan 54 52 nan nan nan nan nan nan nan
45 42 45 43 39 38 43 45 49 50 50 48 46 45 45 47 47 48 49 49 50 52 53 54 54 54 55 56 56 57 58 60 63 67 69 67 62 57 54 52 51 50 49 50 52 53 51 51 52 53 51 49 48 46 45 44 49 nan nan 45 nan 39 35 40 41 42 44 45 50 55 57 57 56 54 54 53 51 nan nan nan nan nan nan nan nan
43 45 48 46 42 45 49 51 53 55 54 51 49 50 51 51 49 48 49 51 53 55 55 56 56 56 57 58 60 61 61 63 66 67 67 66 63 57 51 50 50 48 48 50 52 53 52 52 53 52 51 50 49 48 47 48 48 48 46 45 43 42 46 47 48 49 55 58 58 57 57 56 53 52 50 48 nan nan nan nan nan nan nan nan nan
45 47 47 45 42 44 50 53 57 57 57 56 55 53 52 50 49 50 51 53 55 56 56 56 57 57 58 59 61 61 63 64 63 61 61 63 64 58 51 49 50 49 49 51 53 53 53 53 53 52 50 50 50 50 49 49 48 48 47 47 46 46 48 51 48 49 52 51 53 51 48 48 46 48 nan nan nan nan nan nan nan nan nan nan nan
49 49 52 51 49 53 57 57 58 55 53 55 55 53 50 50 51 53 55 56 56 56 56 57 58 58 59 61 62 65 64 62 60 58 60 62 62 59 55 54 52 51 51 53 53 53 53 53 53 51 50 49 50 50 49 49 49 49 50 49 48 48 46 44 48 49 48 48 46 45 45 43 nan nan nan nan nan nan nan nan nan nan nan nan nan
61 64 60 54 50 51 50 51 55 56 57 56 55 53 53 54 56 56 56 57 56 57 57 59 58 59 59 60 61 62 62 61 62 61 60 59 57 56 58 58 54 52 51 52 52 54 54 53 52 51 50 49 48 49 48 51 51 52 54 53 51 49 48 47 47 51 nan nan nan 45 nan nan nan nan nan nan nan nan nan nan nan nan nan nan nan
53 57 58 57 52 46 45 47 51 55 56 57 58 58 58 58 57 57 57 58 57 56 57 57 57 58 59 59 60 61 60 60 63 63 64 65 67 65 60 60 58 55 56 55 56 54 52 53 52 50 48 49 47 45 54 60 58 56 nan nan nan nan nan 49 nan nan nan 42 45 42 42 nan 44 45 46 48 nan nan nan nan nan nan nan nan nan
45 45 45 42 40 40 41 43 45 48 51 54 55 58 59 58 57 57 57 58 57 56 56 57 56 57 58 59 59 59 59 57 62 65 66 69 67 66 66 64 61 55 58 59 57 56 53 50 50 50 49 47 47 55 59 61 59 57 56 nan nan nan nan nan nan nan nan nan 45 43 42 42 43 nan 48 50 50 49 49 nan nan nan nan nan nan
Wind_Direction
338 350 10 348 357 326 322 298 310 307 288 288 291 300 305 309 299 316 304 307 302 312 316 326 330 329 338 349 353 351 352 2 8 21 30 319 313 307 321 329 335 330 336 347 343 340 313 314 319 324 326 329 324 323 308 307 309 313 312 314 310 315 307 307 307 nan 307 311 333 322 316 320 325 nan 326 324 330 317 319 313 309 298 294 290 291
337 336 0 352 343 338 328 289 316 312 295 298 305 306 305 316 307 303 303 298 302 309 309 316 319 323 326 335 346 343 331 344 348 339 355 318 304 298 318 319 328 325 334 331 331 304 307 319 318 321 324 317 309 306 306 311 306 306 304 298 310 308 305 nan 295 305 309 316 nan 305 307 310 307 314 315 340 nan nan 315 306 nan nan nan nan 274
331 331 350 354 348 347 324 310 319 326 320 315 307 306 309 312 301 298 301 298 298 305 302 308 311 317 318 317 335 313 310 316 318 306 305 312 305 306 315 320 316 322 328 322 312 302 317 312 314 313 311 303 305 309 309 297 301 301 299 306 296 307 306 306 307 309 nan 297 302 304 310 311 303 300 311 303 nan nan nan nan nan nan nan 275 265
316 322 346 355 343 342 321 315 316 325 319 318 315 317 307 306 306 302 302 302 297 297 299 303 307 305 307 305 313 298 285 289 290 290 298 308 307 309 310 318 320 323 320 315 304 314 312 312 313 304 307 296 298 295 298 299 300 298 302 299 299 nan nan 309 309 301 nan 292 293 295 297 296 296 297 303 297 nan nan nan nan nan nan nan 282 nan
303 321 324 349 341 345 323 320 327 335 329 325 320 320 308 318 312 307 297 301 295 289 297 293 293 294 290 285 275 283 265 268 279 288 295 299 304 301 300 301 297 293 284 310 307 308 310 310 309 303 303 306 304 308 304 306 308 307 306 301 304 298 nan 299 305 302 301 296 295 296 295 293 291 284 nan 294 288 nan nan nan 306 nan nan nan nan
280 300 316 339 346 326 321 320 333 335 327 321 321 324 315 313 312 307 295 295 296 297 298 291 288 289 288 290 289 277 281 287 292 296 301 300 308 309 307 309 309 306 313 317 306 309 310 313 311 307 305 302 306 302 296 298 302 311 307 310 306 303 293 292 298 295 299 300 300 306 304 298 292 293 292 292 292 291 296 nan nan nan nan nan 309
291 296 311 337 332 339 330 319 330 333 318 312 321 323 320 313 313 309 301 295 297 298 302 290 288 288 293 292 285 286 287 287 286 292 295 297 303 306 306 310 315 317 319 313 314 310 314 315 314 309 312 311 315 307 316 318 320 316 308 305 299 296 303 300 291 301 299 297 304 nan nan 287 nan 291 291 293 290 291 293 nan nan nan nan nan nan
288 298 302 315 324 337 335 320 318 326 315 318 320 315 316 312 315 313 304 302 300 299 304 298 294 293 295 294 291 291 294 294 300 299 295 299 303 310 309 311 316 314 310 309 318 309 316 318 311 316 316 317 311 310 321 324 311 311 306 300 301 303 302 300 296 295 289 293 284 287 287 293 nan nan 289 289 294 296 293 294 nan nan nan nan nan
289 290 302 300 302 321 311 308 314 316 314 314 310 305 305 308 311 311 311 305 302 306 305 305 298 297 297 293 290 289 292 293 295 298 300 302 306 308 302 301 303 305 310 310 315 316 316 316 318 323 324 313 314 317 322 317 309 306 306 306 309 308 304 297 298 296 296 292 292 285 286 290 293 291 nan 296 291 nan 291 nan 294 nan nan nan nan
297 300 297 297 291 290 294 297 308 312 305 300 299 297 301 301 308 311 311 301 299 304 303 306 307 297 295 293 295 290 289 291 294 299 301 299 302 298 296 297 302 304 308 308 313 316 315 322 325 332 330 319 317 322 321 307 313 314 315 315 314 310 308 307 305 301 294 293 294 297 292 289 286 288 289 nan 286 nan nan nan nan nan 293 nan 291
290 294 294 297 297 293 290 301 301 305 299 297 298 297 298 300 303 307 306 296 299 304 305 306 304 298 292 295 298 295 296 295 298 300 301 301 301 297 295 296 300 307 311 311 315 318 322 325 331 336 323 312 317 321 318 318 320 321 320 323 318 315 312 311 307 302 301 298 297 296 297 296 294 290 290 292 nan 288 285 nan nan nan nan nan 286
275 286 291 297 296 303 312 315 308 309 303 299 298 293 294 295 297 301 300 300 297 302 305 303 299 296 293 295 298 295 295 296 302 302 303 303 301 299 295 295 301 306 316 315 320 327 321 329 333 329 316 316 321 325 322 326 324 325 324 321 322 318 314 309 308 306 303 301 297 298 299 294 290 nan nan 290 nan 287 nan nan nan nan 290 nan 295
284 277 281 294 308 318 317 319 318 315 311 307 306 306 299 298 302 302 301 298 295 299 303 302 299 296 293 294 294 292 295 298 301 302 300 300 299 299 297 300 305 310 318 318 323 327 321 331 336 320 317 319 321 324 324 326 319 325 321 323 324 321 319 315 313 309 306 304 300 nan nan nan 287 288 nan nan nan 286 290 290 nan nan nan 286 287
282 282 294 302 311 314 320 327 334 331 325 319 310 307 300 298 302 303 300 296 290 293 296 296 298 294 293 291 290 290 294 298 298 301 300 299 298 299 298 302 307 314 317 322 325 327 324 333 329 318 320 319 320 323 324 320 320 326 325 326 327 323 322 320 316 317 310 300 293 nan nan nan nan nan nan nan nan nan 291 287 284 286 288 290 295
276 278 301 311 315 315 317 324 338 342 339 335 321 314 304 300 299 300 296 296 290 290 287 293 290 292 291 289 289 288 293 296 298 298 301 302 297 297 297 302 309 314 319 324 326 325 327 331 325 324 322 323 323 325 328 324 325 327 325 327 326 324 325 321 315 313 310 309 302 294 286 nan 280 276 nan nan nan nan 280 284 285 286 289 290 291
292 285 300 314 309 317 326 329 338 344 346 346 340 327 318 309 304 304 302 299 294 292 289 290 289 287 292 293 292 292 289 294 295 298 300 302 298 296 299 303 309 313 320 322 327 327 327 329 327 327 325 325 327 327 327 326 326 327 326 327 325 322 326 325 319 310 307 307 308 307 309 304 288 nan 287 283 279 280 283 286 290 290 289 289 290
292 291 285 290 292 310 321 330 339 348 351 357 349 340 335 324 318 315 310 304 302 298 293 290 288 288 291 291 289 290 295 297 299 305 309 300 297 296 299 307 311 314 320 323 328 328 327 328 329 329 328 326 326 326 326 324 325 326 326 325 325 322 323 326 324 317 305 310 314 318 316 315 307 298 296 295 292 288 285 287 289 290 289 291 291
287 275 268 267 279 306 326 338 354 357 356 353 351 343 340 335 332 325 320 318 311 305 298 292 291 289 286 288 289 290 291 297 301 304 302 299 295 298 302 310 318 316 321 324 326 328 326 328 328 329 327 325 325 327 328 326 324 325 324 325 323 319 320 326 328 321 311 304 308 317 321 321 320 316 315 313 303 296 296 296 294 295 293 295 293
282 275 263 268 274 281 308 346 0 354 347 346 344 341 341 340 338 336 331 328 322 313 305 294 294 286 284 289 291 290 289 295 299 299 300 303 306 305 313 315 319 320 321 325 326 328 328 330 329 329 326 326 327 328 329 327 324 322 321 321 319 317 319 325 326 323 316 310 311 320 324 321 317 318 312 305 300 302 304 302 299 297 296 294 294
303 296 276 281 295 308 330 351 0 352 337 337 344 345 353 348 340 340 335 327 323 320 310 307 305 299 295 294 296 293 295 297 298 299 303 308 309 313 319 321 322 322 325 328 328 331 332 333 331 331 329 328 328 328 328 327 324 321 318 319 317 314 317 322 323 320 319 318 318 319 318 313 313 316 317 314 308 304 304 303 300 298 296 296 295
303 300 284 276 278 285 288 306 357 344 319 328 341 351 353 350 347 345 339 338 337 330 320 313 309 311 309 311 309 306 309 304 306 309 309 311 313 316 321 321 319 328 328 331 330 333 335 334 334 333 331 329 328 328 327 325 324 321 320 321 314 309 311 317 318 318 319 321 320 317 315 311 307 313 317 314 312 309 306 306 302 298 296 295 297
289 292 286 269 259 268 265 257 266 341 338 341 341 344 351 351 347 347 345 342 339 331 319 313 312 315 320 319 320 317 317 312 317 318 319 317 318 321 321 321 324 328 330 333 333 334 335 335 335 334 331 328 326 327 326 324 324 322 324 324 317 307 308 314 316 317 318 318 317 315 315 311 305 306 310 313 311 310 309 306 303 300 300 301 302
282 285 283 269 263 273 273 277 299 359 334 331 329 339 347 346 342 344 345 343 338 331 321 308 312 315 320 319 321 323 322 323 327 323 331 329 324 323 322 324 322 324 327 331 333 335 336 336 335 332 330 327 325 325 324 323 323 322 323 325 323 312 311 316 319 319 318 318 319 315 314 313 309 308 310 313 311 309 308 308 306 304 304 302 298
274 277 281 267 262 267 271 286 309 327 312 317 317 324 336 338 338 340 345 341 335 328 325 315 315 317 321 320 324 321 328 331 335 330 335 337 331 326 325 326 324 320 324 326 329 332 332 333 333 330 329 326 324 323 322 321 321 321 318 316 313 307 306 313 317 317 317 319 320 318 317 317 314 312 312 312 312 309 308 310 310 306 305 304 302
272 282 289 272 267 269 272 285 301 316 309 303 309 314 325 331 333 336 339 339 331 322 327 323 321 326 327 324 325 323 327 331 335 335 341 339 335 332 329 329 323 323 322 322 323 327 329 332 332 330 329 328 325 323 322 319 317 318 318 313 307 304 305 309 312 312 314 317 319 319 318 317 316 314 311 310 309 310 310 311 310 307 306 304 299
268 277 280 272 261 261 267 276 286 303 309 307 305 306 316 323 328 328 330 331 329 323 324 321 321 324 324 325 323 324 332 334 335 339 343 339 334 329 331 326 322 322 321 323 324 326 329 332 333 330 330 331 326 323 322 318 315 314 314 314 311 310 312 312 312 311 313 313 316 316 314 314 315 313 310 309 308 309 308 309 309 308 304 301 299
272 271 269 262 256 258 266 272 280 291 289 290 302 299 307 311 319 323 318 323 324 320 313 315 320 324 319 321 321 324 327 330 331 335 335 330 330 332 332 328 322 325 327 327 327 328 329 332 333 331 331 330 326 323 321 316 311 311 311 312 312 312 312 312 312 312 310 310 314 314 310 312 313 310 308 307 306 306 308 308 308 306 305 304 304
256 248 248 252 253 260 264 267 270 272 271 276 290 291 297 303 309 310 310 317 318 318 311 310 311 313 314 316 315 319 324 327 329 329 327 322 321 321 322 317 318 326 332 331 331 331 331 333 333 331 328 326 324 321 319 315 310 309 309 311 311 310 311 310 309 310 308 309 314 315 312 309 309 306 305 304 304 305 305 305 303 302 303 304 305
260 250 248 251 252 256 262 264 265 268 268 272 279 282 284 292 298 301 306 313 314 314 311 308 307 309 308 306 306 311 317 322 324 323 324 323 321 320 318 318 323 329 329 332 332 332 331 332 331 330 328 326 324 321 315 311 307 309 311 311 310 309 309 309 309 309 306 305 310 311 307 305 305 309 310 308 308 307 303 303 303 303 304 305 306
249 246 249 251 250 252 258 263 264 272 271 266 269 275 286 290 297 301 299 303 307 309 306 304 306 303 298 298 302 305 311 313 315 320 326 326 324 324 323 325 327 330 327 326 327 327 330 329 329 331 329 325 323 319 315 311 311 313 313 308 307 308 309 309 310 308 305 308 310 309 301 299 305 311 313 314 315 313 307 301 299 301 303 305 306
248 252 252 247 246 250 257 263 268 273 273 265 262 270 276 291 291 299 297 298 304 304 300 299 300 294 291 292 294 299 302 307 310 314 319 323 325 323 323 326 325 326 327 325 325 326 328 327 329 331 331 327 323 320 317 315 321 321 313 308 308 308 309 309 309 305 304 308 307 297 296 310 311 305 308 317 315 309 302 298 298 303 304 305 306
256 254 256 254 253 253 258 263 269 271 272 262 256 262 273 284 288 294 296 294 300 301 300 295 292 286 286 290 290 295 300 305 307 313 315 318 318 318 320 321 322 323 324 324 326 327 326 324 325 330 330 327 324 322 319 316 317 319 313 307 305 305 307 308 306 305 303 301 298 301 307 308 304 302 300 302 300 295 292 296 303 305 306 308 309
260 258 254 257 259 258 260 264 265 267 268 269 263 262 272 280 284 286 287 288 294 298 296 291 288 286 285 286 290 296 302 307 311 312 312 313 315 316 317 319 321 318 318 323 324 324 321 322 324 327 329 326 322 314 317 317 317 315 314 308 304 303 306 307 304 299 296 298 301 304 304 300 294 300 300 296 295 292 293 297 298 301 303 306 305
262 265 258 248 246 249 254 260 262 265 272 268 265 266 265 267 268 272 280 278 287 292 292 288 284 284 283 287 292 298 302 308 310 310 311 312 314 315 314 313 313 314 317 320 323 323 319 320 320 323 325 322 317 314 318 316 314 314 313 306 303 306 303 302 300 300 301 302 302 304 304 292 293 295 295 296 294 289 289 294 297 298 300 302 306
243 261 265 261 253 253 254 255 259 266 263 261 261 262 261 264 266 271 274 273 281 286 286 287 287 287 290 292 294 296 302 306 308 309 309 310 309 308 309 308 308 310 312 316 318 319 317 316 317 319 320 319 315 317 316 313 313 314 310 304 304 302 301 300 298 297 300 302 304 299 292 298 298 294 297 301 296 291 289 293 296 297 298 297 297
242 253 265 271 271 267 267 261 257 259 265 265 264 267 270 268 268 270 267 270 274 279 283 287 293 295 298 299 298 299 301 303 304 305 306 305 305 306 305 304 307 309 311 311 313 314 314 311 313 317 318 317 310 315 314 315 313 312 313 310 309 306 304 301 299 299 301 301 301 299 296 292 295 295 297 305 303 292 290 295 300 301 299 297 299
244 248 259 271 272 269 270 265 259 263 269 268 265 267 266 266 270 268 264 268 272 276 283 288 294 296 298 300 299 299 298 298 299 299 301 302 301 302 303 303 307 308 309 309 310 311 310 312 315 318 316 315 309 318 318 314 312 312 307 308 311 309 304 302 299 296 299 306 300 296 294 293 295 293 298 304 303 293 292 298 300 300 300 300 299
nan nan 251 265 269 264 264 269 266 265 269 265 263 263 263 264 268 265 265 269 271 275 281 286 291 293 294 295 295 294 294 294 294 297 298 299 300 301 302 302 306 308 309 307 306 307 309 310 314 318 317 311 308 309 312 313 313 312 312 310 310 306 302 299 296 295 297 298 296 302 294 292 292 294 300 303 298 293 293 296 298 300 300 301 301
nan nan 246 263 265 263 258 263 264 263 264 264 262 263 264 265 265 267 265 269 272 275 280 283 286 287 288 289 289 290 291 293 295 296 297 298 299 297 296 297 302 303 304 303 304 305 307 307 312 315 312 309 308 311 316 315 314 314 311 307 306 302 299 293 290 293 296 296 293 295 299 295 294 294 295 292 294 294 294 297 298 298 301 303 301
nan nan 239 255 259 256 255 257 261 258 260 260 259 261 264 263 263 266 267 268 273 274 276 277 282 283 283 285 285 287 289 293 294 294 294 294 294 294 294 295 297 299 299 300 301 304 306 310 315 317 314 310 310 308 315 317 316 316 316 309 304 301 295 289 288 293 293 295 293 291 292 294 290 295 297 299 297 291 293 295 296 297 nan 302 nan
nan 234 241 246 252 255 253 249 249 250 250 253 256 259 259 257 259 262 265 267 267 268 272 274 276 279 279 281 280 283 286 288 289 289 288 288 290 291 291 292 294 295 296 297 301 304 307 309 313 315 314 312 311 311 314 320 318 316 318 314 304 299 291 286 288 296 299 297 293 294 293 299 295 294 293 292 291 291 292 nan nan nan 297 nan nan
232 242 246 245 249 247 241 236 238 245 247 250 254 256 256 254 256 260 263 264 267 269 270 271 274 276 277 278 278 278 281 284 285 284 283 281 283 285 288 290 290 292 295 297 298 302 305 308 310 311 311 310 311 316 309 319 317 317 316 316 303 296 290 288 293 298 299 297 296 294 292 294 297 293 290 290 291 293 nan nan nan nan nan nan nan
239 242 240 244 245 245 238 234 237 242 242 245 251 253 252 253 255 258 260 263 266 267 269 270 271 273 273 274 275 278 279 280 281 280 279 278 278 282 286 288 288 292 295 298 301 303 306 309 311 310 309 305 301 311 311 312 320 321 320 317 312 299 280 289 295 298 299 298 294 288 281 286 291 288 289 291 nan nan nan nan nan nan nan nan nan
236 237 237 239 239 234 228 225 230 232 234 240 244 247 249 251 255 256 259 263 265 266 266 267 267 269 272 274 277 278 279 281 282 281 279 278 278 281 284 288 289 292 295 298 301 305 308 310 312 309 302 301 302 299 306 314 318 323 318 316 315 nan 282 290 294 300 299 296 294 287 287 287 286 287 289 nan 295 298 nan nan nan nan nan nan nan
244 239 232 229 229 225 220 220 223 228 230 236 240 246 248 251 252 256 262 266 266 265 266 267 269 271 273 275 276 277 279 281 281 281 281 281 283 284 284 286 289 292 297 302 305 307 308 308 308 305 305 305 303 302 300 301 307 nan nan 310 nan 309 303 292 297 292 291 292 289 288 288 289 289 291 293 293 295 nan nan nan nan nan nan nan nan
237 236 234 227 219 217 218 221 225 227 228 231 236 241 247 249 252 257 261 263 263 264 265 268 270 272 274 275 276 276 278 279 279 282 286 290 293 293 288 286 290 295 298 303 304 304 305 306 305 305 307 308 306 303 302 304 305 306 307 307 308 301 290 288 290 293 294 294 293 293 293 292 292 292 292 292 nan nan nan nan nan nan nan nan nan
229 232 230 223 216 215 219 223 226 228 230 233 237 240 244 248 252 257 259 258 260 262 264 266 268 271 272 273 274 274 274 275 279 285 291 294 299 301 297 294 295 297 298 301 303 303 303 304 306 308 309 308 308 305 306 307 306 306 304 302 299 297 295 292 292 294 295 294 295 295 296 299 297 300 nan nan nan nan nan nan nan nan nan nan nan
222 223 223 219 216 218 219 222 224 226 230 235 238 243 248 251 255 257 256 256 259 261 264 266 267 267 268 270 271 273 276 279 284 289 293 296 298 300 300 300 299 297 299 300 302 302 301 304 307 309 308 307 308 308 309 309 309 308 306 305 305 304 301 299 297 299 299 298 295 295 296 296 nan nan nan nan nan nan nan nan nan nan nan nan nan
203 204 208 214 217 220 221 224 225 228 232 235 240 244 249 251 251 253 255 256 258 261 264 267 267 267 268 269 272 274 276 280 280 279 281 283 288 291 292 289 284 282 286 295 298 296 299 303 307 306 306 306 308 311 312 311 310 309 308 308 308 308 305 303 304 304 nan nan nan 297 nan nan nan nan nan nan nan nan nan nan nan nan nan nan nan
225 214 209 215 211 217 223 224 226 229 232 235 239 241 244 248 250 252 254 257 259 262 265 267 268 270 272 273 274 276 278 281 283 285 286 286 282 281 282 287 284 280 283 283 288 296 300 304 304 302 301 307 308 305 303 307 307 309 nan nan nan nan nan 305 nan nan nan 303 303 302 302 nan 302 301 301 302 nan nan nan nan nan nan nan nan nan
233 229 218 213 222 222 223 225 226 229 232 235 238 241 242 246 248 251 254 257 260 262 264 267 269 270 270 271 274 278 281 283 284 286 287 287 286 279 275 274 275 279 279 280 283 288 291 295 301 302 296 288 294 301 303 304 305 304 303 nan nan nan nan nan nan nan nan nan 304 305 303 298 294 nan 303 304 305 308 308 nan nan nan nan nan nan